This demonstration page uses our WeatherBlox Daily Observations layout. Learn more.

Left ArrowRight Arrow

44.8408, -93.29828

Hourly Observations for March 13, 2015

Temp ( °F °C ) Dew Point ( °F °C ) Humidity (%) Winds ( mph kmh ) Pressure ( in mb ) Visibility ( mi km ) Precip ( " mm )
12:53 am 00:53 Cloudy 55 12.8 43 6.1 64 64 S 15 24 30.05 1018 10 16 0.00 0.00
1:53 am 01:53 Cloudy 53 11.7 42 5.6 66 66 S 10 17 30.05 1018 10 16 0.00 0.00
2:53 am 02:53 Cloudy 53 11.7 42 5.6 66 66 S 10 17 30.05 1018 10 16 0.00 0.00
3:53 am 03:53 Cloudy 53 11.7 41 5 64 64 SSW 10 17 30.04 1017 9 14 0.00 0.00
4:53 am 04:53 Cloudy 51 10.6 39 3.9 64 64 SSW 12 19 30.03 1017 10 16 0.00 0.00
5:53 am 05:53 Mostly Cloudy 49 9.4 38 3.3 66 66 SW 9 15 30.03 1017 10 16 0.00 0.00
6:53 am 06:53 Partly Cloudy 47 8.3 37 2.8 69 69 SW 8 13 30.04 1017 10 16 0.00 0.00
7:53 am 07:53 Mostly Cloudy 45 7.2 37 2.8 74 74 SW 6 9 30.04 1017 10 16 0.00 0.00
8:53 am 08:53 Mostly Cloudy 46 7.8 38 3.3 73 73 SW 6 9 30.05 1018 10 16 0.00 0.00
9:53 am 09:53 Partly Cloudy 48 8.9 39 3.9 71 71 W 8 13 30.07 1018 9 14 0.00 0.00
10:53 am 10:53 Partly Cloudy 54 12.2 40 4.4 59 59 W 7 11 30.07 1018 8 13 0.00 0.00
11:53 am 11:53 Partly Cloudy 58 14.4 39 3.9 50 50 W 10 17 30.06 1018 10 16 0.00 0.00
12:53 pm 12:53 Partly Cloudy 59 15 39 3.9 48 48 WNW 16 26 30.06 1018 10 16 0.00 0.00
1:53 pm 13:53 Partly Cloudy 60 15.6 40 4.4 47 47 WNW 14 22 30.05 1018 10 16 0.00 0.00
2:53 pm 14:53 Mostly Sunny 61 16.1 39 3.9 44 44 WNW 15 24 30.04 1017 10 16 0.00 0.00
3:53 pm 15:53 Mostly Sunny 60 15.6 40 4.4 47 47 WNW 16 26 30.05 1018 10 16 0.00 0.00
4:53 pm 16:53 Mostly Sunny 58 14.4 39 3.9 50 50 WNW 16 26 30.07 1018 9 14 0.00 0.00
5:53 pm 17:53 Mostly Sunny 56 13.3 38 3.3 51 51 NW 12 19 30.08 1019 9 14 0.00 0.00
6:53 pm 18:53 Partly Cloudy 52 11.1 38 3.3 59 59 WNW 17 28 30.09 1019 9 14 0.00 0.00
7:53 pm 19:53 Partly Cloudy 50 10 36 2.2 59 59 NW 15 24 30.13 1020 10 16 0.00 0.00
8:53 pm 20:53 Mostly Clear 47 8.3 35 1.7 63 63 NW 17 28 30.15 1021 10 16 0.00 0.00
9:53 pm 21:53 Clear 45 7.2 34 1.1 66 66 WNW 14 22 30.16 1021 10 16 0.00 0.00
10:53 pm 22:53 Mostly Clear 43 6.1 33 0.6 68 68 NW 12 19 30.18 1022 10 16 0.00 0.00
11:53 pm 23:53 Clear 41 5 32 0 70 70 NW 10 17 30.18 1022 10 16 0.00 0.00

Powered by AerisWeather